Weather History for Grant County, OR

Change the Weather History Date:

Monday, August 26, 2013

  Actual Average (KBNO) Record (KBNO)
Temperature  
Mean Temperature 67 °F 62 °F  
Max Temperature 85 °F 82 °F 96 °F (1996)
Min Temperature 50 °F 43 °F 28 °F (1993)
Degree Days  
Heating Degree Days 0 4  
Month to date heating degree days 56  
Since 1 June heating degree days 332  
Since 1 July heating degree days 114  
Cooling Degree Days 2 1  
Month to date cooling degree days 68  
Year to date cooling degree days 200  
Since 1 June cooling degree days 197  
Growing Degree Days 17 (Base 50)    
Moisture  
Dew Point 40 °F    
Average Humidity 41    
Maximum Humidity 71    
Minimum Humidity 15    
Precipitation  
Precipitation 0.00 in 0.01 in 0.09 in (1956)
Month to date precipitation 0.30  
Year to date precipitation 6.92  
Sea Level Pressure  
Sea Level Pressure 30.00 in    
Wind  
Wind Speed 9 mph (South)    
Max Wind Speed 20 mph    
Max Gust Speed 30 mph    
Visibility 10 miles    
Events      
T = Trace of Precipitation, MM = Missing Value Source: NWS Daily Summary

Daily Weather History Graph

Daily Weather History Graph

Search for Another Location

Airport:

Trip Planner

Search our weather history database for the weather conditions in past years. The results will help you decide how hot, cold, wet, or windy it might be!

Date:

Astronomy

Aug. 26, 2013 Rise Set
Actual Time 6:12 AM PDT 7:42 PM PDT
Civil Twilight 5:41 AM PDT 8:12 PM PDT
Nautical Twilight 5:04 AM PDT 8:49 PM PDT
Astronomical Twilight 4:25 AM PDT 9:28 PM PDT
Moon 10:39 PM PDT (8/26) 12:34 PM PDT (8/26)
Length of Visible Light 14h 30m
Length of Day
13h 30m
Waning Gibbous, 65% of the Moon is Illuminated
Aug 26
Waning Gibbous
Aug 28
Last Quarter
Sep 5
New
Sep 12
First Quarter
Sep 19
Full

Hourly Weather History & Observations

Time (PDT) Temp. Dew Point Humidity Pressure Visibility Wind Dir Wind Speed Gust Speed Precip Events Conditions
12:15 AM 59.4 °F 41.5 °F 52% 30.00 in 10.0 mi SSE 12.7 mph - N/A   Clear
12:35 AM 58.1 °F 41.2 °F 53% 30.01 in 10.0 mi ESE 6.9 mph - N/A   Clear
12:55 AM 55.6 °F 42.3 °F 61% 30.01 in 10.0 mi ESE 5.8 mph - N/A   Clear
1:15 AM 55.6 °F 41.7 °F 60% 30.01 in 10.0 mi SE 3.5 mph - N/A   Clear
1:35 AM 54.3 °F 41.5 °F 62% 30.01 in 10.0 mi SE 5.8 mph - N/A   Clear
1:55 AM 55.9 °F 41.2 °F 58% 30.01 in 10.0 mi SSE 8.1 mph - N/A   Clear
2:15 AM 54.9 °F 41.2 °F 60% 30.01 in 10.0 mi ESE 5.8 mph - N/A   Clear
2:35 AM 54.3 °F 41.0 °F 61% 30.01 in 10.0 mi ESE 5.8 mph - N/A   Clear
2:55 AM 54.1 °F 41.0 °F 61% 30.02 in 10.0 mi ESE 6.9 mph - N/A   Clear
3:15 AM 53.2 °F 41.0 °F 63% 30.02 in 10.0 mi ESE 8.1 mph - N/A   Clear
3:35 AM 51.8 °F 41.2 °F 67% 30.03 in 10.0 mi East 9.2 mph - N/A   Clear
3:55 AM 51.8 °F 41.0 °F 67% 30.03 in 10.0 mi East 4.6 mph - N/A   Clear
4:15 AM 52.0 °F 41.0 °F 66% 30.03 in 10.0 mi East 6.9 mph - N/A   Clear
4:35 AM 51.6 °F 41.2 °F 68% 30.04 in 10.0 mi ESE 3.5 mph - N/A   Clear
4:55 AM 52.0 °F 40.6 °F 65% 30.04 in 10.0 mi East 6.9 mph - N/A   Clear
5:15 AM 51.8 °F 40.6 °F 66% 30.04 in 10.0 mi SE 8.1 mph - N/A   Clear
5:35 AM 51.8 °F 40.8 °F 66% 30.04 in 10.0 mi East 8.1 mph - N/A   Clear
5:55 AM 51.3 °F 40.5 °F 67% 30.04 in 10.0 mi ESE 8.1 mph - N/A   Clear
6:15 AM 50.5 °F 40.6 °F 69% 30.04 in 10.0 mi ESE 10.4 mph - N/A   Clear
6:35 AM 50.2 °F 41.0 °F 71% 30.05 in 10.0 mi ESE 8.1 mph - N/A   Clear
6:55 AM 50.5 °F 41.2 °F 70% 30.05 in 10.0 mi ESE 8.1 mph - N/A   Clear
7:15 AM 52.7 °F 41.5 °F 66% 30.05 in 10.0 mi ESE 6.9 mph - N/A   Clear
7:35 AM 55.9 °F 41.4 °F 58% 30.05 in 10.0 mi ESE 6.9 mph - N/A   Clear
7:55 AM 57.2 °F 41.7 °F 56% 30.05 in 10.0 mi ESE 8.1 mph - N/A   Clear
8:15 AM 57.2 °F 41.5 °F 56% 30.05 in 10.0 mi East 9.2 mph - N/A   Clear
8:35 AM 59.4 °F 42.1 °F 53% 30.05 in 10.0 mi ESE 8.1 mph - N/A   Clear
8:55 AM 62.6 °F 42.3 °F 47% 30.04 in 10.0 mi East 6.9 mph - N/A   Clear
9:15 AM 66.0 °F 42.4 °F 42% 30.03 in 10.0 mi East 5.8 mph - N/A   Clear
9:35 AM 69.8 °F 42.4 °F 37% 30.03 in 10.0 mi ESE 5.8 mph - N/A   Clear
9:55 AM 72.0 °F 41.9 °F 34% 30.02 in 10.0 mi South 4.6 mph 19.6 mph N/A   Clear
10:15 AM 73.8 °F 41.7 °F 32% 30.02 in 10.0 mi SSE 11.5 mph 21.9 mph N/A   Clear
10:35 AM 74.8 °F 41.9 °F 31% 30.02 in 10.0 mi South 16.1 mph 29.9 mph N/A   Scattered Clouds
10:55 AM 75.7 °F 40.6 °F 28% 30.01 in 10.0 mi South 11.5 mph 26.5 mph N/A   Scattered Clouds
11:15 AM 77.4 °F 39.6 °F 26% 30.01 in 10.0 mi SSE 16.1 mph 24.2 mph N/A   Scattered Clouds
11:35 AM 78.1 °F 38.3 °F 24% 30.00 in 10.0 mi South 16.1 mph 25.3 mph N/A   Scattered Clouds
11:55 AM 79.7 °F 38.1 °F 23% 30.00 in 10.0 mi South 13.8 mph 23.0 mph N/A   Mostly Cloudy
12:15 PM 78.1 °F 37.2 °F 23% 30.00 in 10.0 mi South 13.8 mph 25.3 mph N/A   Mostly Cloudy
12:35 PM 79.2 °F 37.9 °F 23% 29.99 in 10.0 mi South 12.7 mph 24.2 mph N/A   Mostly Cloudy
12:55 PM 79.3 °F 37.9 °F 23% 29.99 in 10.0 mi South 9.2 mph 24.2 mph N/A   Mostly Cloudy
1:15 PM 79.9 °F 36.9 °F 21% 29.98 in 10.0 mi SSW 12.7 mph 27.6 mph N/A   Scattered Clouds
1:35 PM 81.0 °F 37.4 °F 21% 29.98 in 10.0 mi South 18.4 mph 25.3 mph N/A   Scattered Clouds
1:55 PM 81.5 °F 37.6 °F 21% 29.98 in 10.0 mi South 15.0 mph 25.3 mph N/A   Mostly Cloudy
2:15 PM 80.4 °F 35.8 °F 20% 29.98 in 10.0 mi South 6.9 mph - N/A   Mostly Cloudy
2:35 PM 82.0 °F 35.6 °F 19% 29.97 in 10.0 mi SW 9.2 mph 17.3 mph N/A   Mostly Cloudy
2:55 PM 81.9 °F 33.4 °F 17% 29.96 in 10.0 mi South 19.6 mph 26.5 mph N/A   Scattered Clouds
3:15 PM 81.0 °F 33.8 °F 18% 29.95 in 10.0 mi SSW 9.2 mph 12.7 mph N/A   Mostly Cloudy
3:35 PM 81.0 °F 32.7 °F 17% 29.95 in 10.0 mi WSW 11.5 mph 19.6 mph N/A   Scattered Clouds
3:55 PM 81.0 °F 32.0 °F 17% 29.94 in 10.0 mi WSW 15.0 mph - N/A   Clear
4:15 PM 81.9 °F 32.0 °F 16% 29.95 in 10.0 mi SW 12.7 mph 20.7 mph N/A   Scattered Clouds
4:35 PM 84.9 °F 32.0 °F 15% 29.94 in 10.0 mi SW 11.5 mph 17.3 mph N/A   Mostly Cloudy
4:55 PM 82.2 °F 34.0 °F 18% 29.95 in 10.0 mi WNW 9.2 mph - N/A   Mostly Cloudy
5:15 PM 81.0 °F 35.2 °F 19% 29.95 in 10.0 mi WNW 12.7 mph - N/A   Mostly Cloudy
5:35 PM 80.8 °F 36.1 °F 20% 29.95 in 10.0 mi West 10.4 mph - N/A   Mostly Cloudy
5:55 PM 82.4 °F 34.7 °F 18% 29.95 in 10.0 mi West 13.8 mph 17.3 mph N/A   Scattered Clouds
6:15 PM 81.1 °F 34.3 °F 19% 29.94 in 10.0 mi WNW 11.5 mph - N/A   Scattered Clouds
6:35 PM 80.6 °F 34.5 °F 19% 29.94 in 10.0 mi WNW 9.2 mph - N/A   Scattered Clouds
6:55 PM 80.1 °F 34.7 °F 19% 29.95 in 10.0 mi WNW 11.5 mph - N/A   Scattered Clouds
7:15 PM 78.3 °F 35.8 °F 22% 29.95 in 10.0 mi West 10.4 mph - N/A   Scattered Clouds
7:35 PM 75.7 °F 36.7 °F 24% 29.95 in 10.0 mi West 8.1 mph - N/A   Scattered Clouds
7:55 PM 74.3 °F 36.9 °F 26% 29.96 in 10.0 mi West 8.1 mph - N/A   Scattered Clouds
8:15 PM 72.0 °F 37.9 °F 29% 29.97 in 10.0 mi NW 9.2 mph - N/A   Clear
8:35 PM 71.4 °F 41.9 °F 34% 29.98 in 10.0 mi SW 3.5 mph - N/A   Clear
8:55 PM 70.9 °F 43.7 °F 38% 29.99 in 10.0 mi NW 5.8 mph - N/A   Clear
9:15 PM 69.3 °F 45.0 °F 42% 30.00 in 10.0 mi WNW 8.1 mph - N/A   Clear
9:35 PM 68.4 °F 45.7 °F 44% 30.00 in 10.0 mi WNW 9.2 mph - N/A   Clear
9:55 PM 67.8 °F 46.6 °F 46% 30.01 in 10.0 mi WNW 4.6 mph - N/A   Clear
10:15 PM 67.1 °F 45.5 °F 46% 30.01 in 10.0 mi SSW 3.5 mph - N/A   Clear
10:35 PM 64.4 °F 45.5 °F 50% 30.02 in 10.0 mi Calm Calm - N/A   Clear
10:55 PM 65.5 °F 46.8 °F 51% 30.03 in 10.0 mi SW 3.5 mph - N/A   Clear
11:15 PM 64.4 °F 47.8 °F 55% 30.03 in 10.0 mi West 3.5 mph - N/A   Clear
11:35 PM 63.0 °F 48.0 °F 58% 30.03 in 10.0 mi West 8.1 mph - N/A   Clear
11:55 PM 61.7 °F 48.7 °F 62% 30.04 in 10.0 mi West 4.6 mph - N/A   Clear